Weather History for 41194 - November, 2013

Change the Weather History Date:

Tuesday, November 5, 2013

  Actual Average Record
Temperature  
Mean Temperature 83 °F -  
Max Temperature 88 °F 83 °F - ()
Min Temperature 78 °F 67 °F - ()
Cooling Degree Days 18    
Growing Degree Days 33 (Base 50)    
Moisture  
Dew Point 66 °F    
Average Humidity 55    
Maximum Humidity 66    
Minimum Humidity 40    
Precipitation  
Precipitation 0.00 in 0.01 in - ()
Sea Level Pressure  
Sea Level Pressure 30.00 in    
Wind  
Wind Speed 6 mph ()    
Max Wind Speed 13 mph    
Max Gust Speed -    
Visibility 6.1 miles    
Events      
T = Trace of Precipitation, MM = Missing Value Source: Averaged Metar Reports

Daily Weather History Graph

Daily Weather History Graph

Search for Another Location

Airport or City:

Trip Planner

Search our weather history database for the weather conditions in past years. The results will help you decide how hot, cold, wet, or windy it might be!

Date:

Astronomy

Nov. 05, 2013 Rise Set
Actual Time 6:28 AM GST 5:35 PM GST
Civil Twilight 6:04 AM GST 5:58 PM GST
Nautical Twilight 5:37 AM GST 6:26 PM GST
Astronomical Twilight 5:10 AM GST 6:53 PM GST
Moon 8:10 AM GST 7:21 PM GST
Length of Visible Light 11h 54m
Length of Day
11h 06m
Waxing Crescent, 4% of the Moon is Illuminated
Nov 5
Waxing Crescent
Nov 10
First Quarter
Nov 17
Full
Nov 25
Last Quarter
Dec 3
New

Hourly Weather History & Observations

Time (GST) Temp. Heat Index Dew Point Humidity Pressure Visibility Wind Dir Wind Speed Gust Speed Precip Events Conditions
12:00 AM 78.8 °F - 62.6 °F 57% 30.01 in - East 4.6 mph - N/A   Clear
1:00 AM 80 °F - 64 °F 48% 30.00 in 6 mi East 8.1 mph - -  
1:00 AM 80.6 °F 82.3 °F 64.4 °F 58% 29.98 in - East 8.1 mph - N/A   Clear
2:00 AM 78.8 °F - 64.4 °F 61% 29.98 in - ESE 6.9 mph - N/A   Clear
3:00 AM 78.8 °F - 64.4 °F 61% 29.98 in - ESE 4.6 mph - N/A   Clear
4:00 AM 80 °F - 64 °F 50% 29.98 in 6 mi SSE 3.5 mph - -   Scattered Clouds
4:00 AM 80.6 °F 82.3 °F 64.4 °F 58% 29.98 in - SSE 3.5 mph - N/A   Clear
5:00 AM 78.8 °F - 64.4 °F 61% 29.98 in - East 4.6 mph - N/A   Clear
6:00 AM 80.6 °F 82.3 °F 64.4 °F 58% 29.98 in - Variable 4.6 mph - N/A   Clear
7:00 AM 78 °F - 64 °F 52% 30.02 in 6 mi ENE 4.6 mph - -   Scattered Clouds
7:00 AM 78.8 °F - 64.4 °F 61% 30.01 in - ENE 4.6 mph - N/A   Clear
8:00 AM 80.6 °F 82.3 °F 64.4 °F 58% 30.01 in - East 6.9 mph - N/A   Clear
9:00 AM 84.2 °F 86.6 °F 66.2 °F 55% 30.04 in - NNE 4.6 mph - N/A   Clear
10:00 AM 86 °F - 68 °F 45% 30.06 in 6 mi North 8.1 mph - -   Clear
10:00 AM 86.0 °F 89.4 °F 68.0 °F 55% 30.04 in - Variable 8.1 mph - N/A   Clear
11:00 AM 86.0 °F 88.2 °F 66.2 °F 51% 30.04 in 6.2 mi NNW 6.9 mph - N/A   Partly Cloudy
12:00 PM 87.8 °F 90.4 °F 66.2 °F 49% 30.01 in 6.2 mi NNW 10.4 mph - N/A   Partly Cloudy
1:00 PM 87 °F - 66 °F 40% 30.01 in 6 mi NNW 10.4 mph - -   Scattered Clouds
1:00 PM 86.0 °F 88.2 °F 66.2 °F 51% 30.01 in 6.2 mi NNW 10.4 mph - N/A   Partly Cloudy
2:00 PM 86.0 °F 88.2 °F 66.2 °F 51% 29.98 in 6.2 mi NNW 12.7 mph - N/A   Partly Cloudy
3:00 PM 86.0 °F 89.4 °F 68.0 °F 55% 29.98 in - NW 10.4 mph - N/A   Clear
4:00 PM 86 °F - 67 °F 44% 29.98 in 6 mi NW 10.4 mph - -   Scattered Clouds
4:00 PM 86.0 °F 89.4 °F 68.0 °F 55% 29.98 in 6.2 mi NW 10.4 mph - N/A   Partly Cloudy
5:00 PM 84.2 °F 87.3 °F 68.0 °F 58% 29.98 in 6.2 mi NW 9.2 mph - N/A   Partly Cloudy
6:00 PM 84.2 °F 87.3 °F 68.0 °F 58% 29.98 in 6.2 mi NW 6.9 mph - N/A   Partly Cloudy
7:00 PM 83 °F - 69 °F 53% 30.00 in 6 mi NNW 6.9 mph - -   Scattered Clouds
7:00 PM 84.2 °F 87.3 °F 68.0 °F 58% 29.98 in 6.2 mi NNW 6.9 mph - N/A   Partly Cloudy
8:00 PM 82.4 °F 86.3 °F 69.8 °F 66% 30.01 in 6.2 mi NNW 5.8 mph - N/A   Partly Cloudy
9:00 PM 82.4 °F 85.4 °F 68.0 °F 62% 30.01 in 6.2 mi North 4.6 mph - N/A   Partly Cloudy
10:00 PM 83 °F - 67 °F 50% 30.03 in 6 mi North 6.9 mph - -   Scattered Clouds
10:00 PM 82.4 °F 85.4 °F 68.0 °F 62% 30.01 in 6.2 mi North 6.9 mph - N/A   Partly Cloudy
11:00 PM 82.4 °F 84.6 °F 66.2 °F 58% 30.01 in 6.2 mi North 6.9 mph - N/A   Partly Cloudy